Rockford, IL

6:45 AM CDT on April 23, 2017 (GMT -0500)
Greater Rockford

Weather History for KRFD - November, 2014

Change the Weather History Date:

Saturday, November 29, 2014

  Actual Average Record
Temperature  
Mean Temperature 38 °F 32 °F  
Max Temperature 47 °F 40 °F 67 °F (1941)
Min Temperature 29 °F 24 °F -6 °F (1976)
Degree Days  
Heating Degree Days 27 33  
Month to date heating degree days 951 749  
Since 1 July heating degree days 1513 1302  
Cooling Degree Days 0 0  
Month to date cooling degree days 0 0  
Year to date cooling degree days 729 820  
Moisture  
Dew Point 34 °F    
Average Humidity 84    
Maximum Humidity 92    
Minimum Humidity 76    
Precipitation  
Precipitation 0.00 in 0.08 in 1.52 in (1975)
Month to date precipitation 1.63 2.50  
Year to date precipitation 32.57 34.18  
Snow  
Snow 0.00 in 0.10 in 3.00 in (1925)
Month to date snowfall 3.5 1.5  
Since 1 July snowfall 3.6 1.6  
Since 1 September snowfall 3.6 1.6  
Snow Depth 1.00 in    
Sea Level Pressure  
Sea Level Pressure 29.67 in    
Wind  
Wind Speed 10 mph (South)    
Max Wind Speed 18 mph    
Max Gust Speed 23 mph    
Visibility 9 miles    
Events Fog    
T = Trace of Precipitation, MM = Missing Value Source: NWS Daily Summary

Daily Weather History Graph

Daily Weather History Graph

Search for Another Location

Airport or City:

Trip Planner

Search our weather history database for the weather conditions in past years. The results will help you decide how hot, cold, wet, or windy it might be!

Date:

Astronomy

Nov. 29, 2014 Rise Set
Actual Time 7:03 AM CST 4:25 PM CST
Civil Twilight 6:32 AM CST 4:57 PM CST
Nautical Twilight 5:57 AM CST 5:31 PM CST
Astronomical Twilight 5:23 AM CST 6:05 PM CST
Moon 12:27 PM CST (11/29) No Moon Set
Length of Visible Light 10h 24m
Length of Day
9h 22m
First Quarter, 54% of the Moon is Illuminated
Nov 29
First Quarter
Dec 6
Full
Dec 14
Last Quarter
Dec 21
New
Dec 28
First Quarter

Hourly Weather History & Observations

Time (CST) Temp. Windchill Dew Point Humidity Pressure Visibility Wind Dir Wind Speed Gust Speed Precip Events Conditions
12:54 AM 30.9 °F 22.8 °F 27.0 °F 85% 29.84 in 8.0 mi SE 9.2 mph - N/A   Clear
1:54 AM 30.0 °F 21.1 °F 26.1 °F 85% 29.81 in 8.0 mi SE 10.4 mph - N/A   Clear
2:54 AM 30.0 °F 23.2 °F 26.1 °F 85% 29.80 in 9.0 mi SE 6.9 mph - N/A   Clear
3:54 AM 30.0 °F 22.4 °F 26.1 °F 85% 29.77 in 9.0 mi SE 8.1 mph - N/A   Clear
4:54 AM 30.0 °F 23.2 °F 26.1 °F 85% 29.75 in 10.0 mi SSE 6.9 mph - N/A   Clear
5:54 AM 30.9 °F 22.8 °F 28.0 °F 89% 29.74 in 10.0 mi SSE 9.2 mph - N/A   Partly Cloudy
6:54 AM 32.0 °F 23.6 °F 28.0 °F 85% 29.72 in 10.0 mi SSE 10.4 mph - N/A   Scattered Clouds
7:54 AM 32.0 °F 24.2 °F 28.9 °F 88% 29.72 in 10.0 mi South 9.2 mph - N/A   Scattered Clouds
8:54 AM 35.1 °F 26.9 °F 30.0 °F 82% 29.70 in 10.0 mi South 11.5 mph - N/A   Partly Cloudy
9:54 AM 37.0 °F 28.1 °F 32.0 °F 82% 29.68 in 10.0 mi South 15.0 mph - N/A   Partly Cloudy
10:54 AM 39.0 °F 30.3 °F 34.0 °F 82% 29.65 in 10.0 mi South 16.1 mph - N/A   Partly Cloudy
11:54 AM 42.1 °F 35.7 °F 36.0 °F 79% 29.63 in 10.0 mi South 11.5 mph - N/A   Partly Cloudy
12:54 PM 45.0 °F 38.2 °F 39.0 °F 80% 29.60 in 10.0 mi South 15.0 mph - N/A   Scattered Clouds
1:54 PM 46.0 °F 39.9 °F 39.9 °F 79% 29.59 in 10.0 mi SSW 13.8 mph - N/A   Mostly Cloudy
2:54 PM 46.0 °F 40.6 °F 39.9 °F 79% 29.58 in 10.0 mi SSW 11.5 mph - N/A   Mostly Cloudy
3:54 PM 45.0 °F 40.1 °F 39.9 °F 82% 29.60 in 10.0 mi South 9.2 mph - N/A   Mostly Cloudy
4:54 PM 42.1 °F 36.1 °F 39.0 °F 89% 29.61 in 10.0 mi South 10.4 mph - N/A   Overcast
5:54 PM 42.1 °F 36.1 °F 37.9 °F 85% 29.62 in 10.0 mi South 10.4 mph - N/A   Overcast
6:54 PM 42.1 °F 36.6 °F 39.0 °F 89% 29.63 in 9.0 mi SSW 9.2 mph - N/A   Overcast
7:54 PM 39.0 °F 33.4 °F 37.0 °F 93% 29.63 in 8.0 mi South 8.1 mph - N/A   Overcast
8:54 PM 41.0 °F 33.5 °F 37.9 °F 89% 29.62 in 8.0 mi South 13.8 mph - N/A   Overcast
9:54 PM 39.0 °F 31.4 °F 37.0 °F 93% 29.63 in 6.0 mi South 12.7 mph - N/A   Mostly Cloudy
10:54 PM 39.9 °F 35.1 °F 37.9 °F 93% 29.64 in 7.0 mi South 6.9 mph - N/A   Scattered Clouds
11:54 PM 37.9 °F 34.4 °F 36.0 °F 93% 29.65 in 5.0 mi SSE 4.6 mph - N/A Fog Patches of Fog